{"data":{"norad_id":51987,"intl_designator":"2022-025AH","name":"STARLINK-3644","alt_names":[],"object_type":"PAYLOAD","status":"ACTIVE","operator":null,"country":"US","launch_date":"2022-03-09","launch_site_code":"AFETR","launch_vehicle":null,"mission":null,"orbit_class":"UNKNOWN","rcs_meters":null,"size_class":null,"mass_kg":null,"dimensions":null,"purposes":["comms"],"wikipedia_slug":null,"has_3d_model":false,"image_url":null,"decayed_at":null,"tle_current":{"epoch":"2026-05-25T03:44:14.648640Z","epoch_age_seconds":72078,"freshness":"FRESH","line1":"1 51987U 22025AH  26145.15572510 -.00000190  00000+0  61380-5 0  9998","line2":"2 51987  53.2129  55.8499 0001257  83.9544 276.1592 15.08841682232600","mean_motion":15.08841682,"eccentricity":0.0001257,"inclination_deg":53.2129,"raan_deg":55.8499,"arg_perigee_deg":83.9544,"mean_anomaly_deg":276.1592,"bstar":6.138e-6,"rev_number":23260,"period_min":95.437448287567,"perigee_km":538.86867084913,"apogee_km":540.60782468642,"semimajor_km":6917.8752477678,"source":"CELESTRAK","updated_at":"2026-05-25T13:38:16.996694Z"}}}